DW5656 Weather Reports


time (UTC)temp
F
wind
direction
speed
knots
gust
knots
rain 1hr
in
rain 24hr
in
rain mn
in
humidity
%
barometer
mb
20260903143618 107 338 3.5 7.8 0.00 0.00 0.00 28 1017.1
20260903142718 107 351 2.6 8.7 0.00 0.00 0.00 27 1017.1
20260903141818 107 3 2.6 5.2 0.00 0.00 0.00 27 1017.2
20260903140918 107 286 2.6 5.2 0.00 0.00 0.00 29 1017.3
20260903140018 107 289 1.7 5.2 0.00 0.00 0.00 29 1017.3
20260903135139 107 5 1.7 4.3 0.00 0.00 0.00 29 1017.4
20260903134218 106 351 1.7 4.3 0.00 0.00 0.00 29 1017.5
20260903133318 106 26 2.6 4.3 0.00 0.00 0.00 30 1017.5
20260903132419 105 6 2.6 8.7 0.00 0.00 0.00 30 1017.5
20260903131518 106 39 1.7 7.0 0.00 0.00 0.00 30 1017.5
20260903130639 105 305 2.6 4.3 0.00 0.00 0.00 31 1017.6
20260903125718 104 15 1.7 7.8 0.00 0.00 0.00 30 1017.7
20260903124818 104 160 1.7 4.3 0.00 0.00 0.00 34 1017.7
20260903123918 103 59 1.7 6.1 0.00 0.00 0.00 34 1017.8
20260903123039 102 75 2.6 7.0 0.00 0.00 0.00 34 1017.8
20260903122118 101 32 2.6 7.0 0.00 0.00 0.00 36 1017.9
20260903121218 101 18 1.7 4.3 0.00 0.00 0.00 36 1018.2
20260903120318 101 58 2.6 7.0 0.00 0.00 0.00 36 1018.3
20260903115418 100 36 2.6 7.8 0.00 0.00 0.00 37 1018.4
20260903114518 100 64 2.6 7.0 0.00 0.00 0.00 37 1018.5
20260903113618 99 88 4.3 8.7 0.00 0.00 0.00 37 1018.7
20260903112718 98 59 3.5 8.7 0.00 0.00 0.00 39 1018.7
20260903111818 97 30 3.5 8.7 0.00 0.00 0.00 41 1018.8
20260903110919 96 20 3.5 7.0 0.00 0.00 0.00 43 1018.9
20260903110018 96 77 3.5 7.0 0.00 0.00 0.00 41 1019.0
20260903105118 95 53 3.5 6.1 0.00 0.00 0.00 44 1018.9
20260903104217 94 43 3.5 7.8 0.00 0.00 0.00 45 1019.0
20260903103318 93 38 3.5 7.8 0.00 0.00 0.00 47 1019.2
20260903102439 93 21 3.5 8.7 0.00 0.00 0.00 47 1019.2
20260903101518 92 14 3.5 7.8 0.00 0.00 0.00 48 1019.3
20260903100617 90 21 3.5 8.7 0.00 0.00 0.00 50 1019.2
20260903095738 89 32 3.5 7.0 0.00 0.00 0.00 51 1019.4
20260903094839 89 29 3.5 8.7 0.00 0.00 0.00 51 1019.4
20260903093917 88 55 4.3 7.8 0.00 0.00 0.00 51 1019.3
20260903093038 87 43 3.5 10.4 0.00 0.00 0.00 52 1019.3
20260903092117 87 55 3.5 8.7 0.00 0.00 0.00 52 1019.2
20260903091217 86 58 4.3 7.8 0.00 0.00 0.00 53 1019.2
20260903090338 86 61 3.5 8.7 0.00 0.00 0.00 54 1019.0
20260903085417 85 53 3.5 7.8 0.00 0.00 0.00 55 1019.1
20260903084517 84 41 5.2 8.7 0.00 0.00 0.00 56 1019.2
20260903083617 83 54 5.2 11.3 0.00 0.00 0.00 57 1019.0
20260903082717 82 46 5.2 8.7 0.00 0.00 0.00 57 1019.1
20260903081817 82 49 3.5 9.6 0.00 0.00 0.00 58 1019.1
20260903080917 81 46 4.3 7.8 0.00 0.00 0.00 59 1019.1
20260903080038 81 48 3.5 7.8 0.00 0.00 0.00 59 1019.1
20260903075117 80 47 4.3 8.7 0.00 0.00 0.00 59 1019.2
20260903074217 80 47 3.5 8.7 0.00 0.00 0.00 59 1019.2
20260903073338 80 50 2.6 7.0 0.00 0.00 0.00 58 1019.2
20260903072417 80 53 2.6 5.2 0.00 0.00 0.00 59 1019.1
20260903071517 79 50 2.6 6.1 0.00 0.00 0.00 59 1019.1
20260903070618 79 52 2.6 6.1 0.00 0.00 0.00 60 1018.9
20260903065717 78 46 3.5 7.8 0.00 0.00 0.00 60 1018.8
20260903064817 78 52 3.5 7.8 0.00 0.00 0.00 61 1018.8
20260903063917 78 49 2.6 8.7 0.00 0.00 0.00 61 1018.7
20260903063017 78 47 3.5 6.1 0.00 0.00 0.00 62 1018.6
20260903062117 78 37 3.5 7.0 0.00 0.00 0.00 62 1018.6
20260903061217 78 40 2.6 7.0 0.00 0.00 0.00 63 1018.5
20260903060317 77 50 3.5 6.1 0.00 0.00 0.00 64 1018.3
20260903055417 77 72 3.5 7.0 0.00 0.00 0.00 65 1018.1
20260903054517 78 48 3.5 7.0 0.00 0.00 0.00 65 1018.1
20260903053617 78 49 2.6 7.8 0.00 0.00 0.00 65 1018.0
20260903052717 78 57 1.7 4.3 0.00 0.00 0.00 67 1017.9
20260903051817 78 360 2.6 4.3 0.00 0.00 0.00 68 1017.9
20260903050918 78 23 2.6 5.2 0.00 0.00 0.00 68 1017.9
20260903050038 78 9 2.6 4.3 0.00 0.00 0.00 68 1017.8
20260903045117 78 5 2.6 4.3 0.00 0.00 0.00 68 1017.8
20260903044238 77 14 1.7 4.3 0.00 0.00 0.00 68 1017.8
20260903043317 78 11 1.7 3.5 0.00 0.00 0.00 67 1017.8
20260903042417 78 10 1.7 3.5 0.00 0.00 0.00 67 1017.9
20260903041538 78 354 1.7 3.5 0.00 0.00 0.00 67 1017.8
20260903040617 78 331 0.9 2.6 0.00 0.00 0.00 66 1017.9
20260903035717 79 331 1.7 2.6 0.00 0.00 0.00 65 1017.9
20260903034817 79 324 1.7 4.3 0.00 0.00 0.00 65 1018.0
20260903033937 79 309 1.7 3.5 0.00 0.00 0.00 64 1018.0
20260903033017 79 284 0.9 3.5 0.00 0.00 0.00 66 1017.9
20260903032116 79 265 0.9 1.7 0.00 0.00 0.00 70 1018.0
20260903031216 79 265 0.9 1.7 0.00 0.00 0.00 71 1017.9
20260903030317 79 265 0.9 1.7 0.00 0.00 0.00 71 1017.9
20260903025416 79 265 0.9 2.6 0.00 0.00 0.00 71 1018.0
20260903024516 80 265 0.9 2.6 0.00 0.00 0.00 70 1017.9
20260903023616 80 265 0.9 2.6 0.00 0.00 0.00 69 1017.9
20260903022716 80 265 0.9 1.7 0.00 0.00 0.00 69 1017.9
20260903021816 81 265 0.9 1.7 0.00 0.00 0.00 69 1018.0
20260903020937 81 265 0.9 2.6 0.00 0.00 0.00 68 1018.0
20260903020016 81 265 0.9 2.6 0.00 0.00 0.00 67 1017.9
20260903015137 82 265 0.0 1.7 0.00 0.00 0.00 67 1017.7
20260903014216 82 265 0.9 2.6 0.00 0.00 0.00 67 1017.6
20260903013337 82 265 0.9 2.6 0.00 0.00 0.00 67 1017.7
20260903012416 82 265 0.9 3.5 0.00 0.00 0.00 67 1017.7
20260903011516 83 265 0.9 3.5 0.00 0.00 0.00 66 1017.9
20260903010616 83 275 1.7 3.5 0.00 0.00 0.00 65 1017.8
20260903005716 84 292 0.0 2.6 0.00 0.00 0.00 64 1017.9
20260903004816 84 0 0.0 0.0 0.00 0.00 0.00 64 1017.8
20260903003916 84 0 0.0 0.0 0.00 0.00 0.00 63 1017.7
20260903003016 84 0 0.0 0.0 0.00 0.00 0.00 63 1017.7
20260903002116 85 292 0.0 0.9 0.00 0.00 0.00 62 1017.8
20260903001216 85 293 0.9 2.6 0.00 0.00 0.00 62 1017.9
20260903000337 86 294 0.9 1.7 0.00 0.00 0.00 61 1017.9
20260902235416 86 328 0.9 1.7 0.00 0.00 0.00 59 1017.8
20260902234516 86 350 0.9 1.7 0.00 0.00 0.00 57 1017.8
20260902233616 87 350 0.9 1.7 0.00 0.00 0.00 57 1017.9
20260902232716 87 350 0.9 1.7 0.00 0.00 0.00 56 1017.9
20260902231837 87 345 1.7 3.5 0.00 0.00 0.00 55 1017.8
20260902230916 88 325 0.9 3.5 0.00 0.00 0.00 55 1017.8
20260902230016 88 311 0.0 1.7 0.00 0.00 0.00 57 1017.9
20260902225116 88 0 0.0 0.0 0.00 0.00 0.00 57 1017.8
20260902224237 88 311 0.9 1.7 0.00 0.00 0.00 56 1017.9
20260902223316 88 309 0.9 3.5 0.00 0.00 0.00 56 1017.8
20260902222416 88 307 0.9 3.5 0.00 0.00 0.00 56 1017.9
20260902221516 88 292 1.7 3.5 0.00 0.00 0.00 56 1017.9
20260902220615 88 288 1.7 3.5 0.00 0.00 0.00 56 1017.8
20260902215716 88 294 0.9 3.5 0.00 0.00 0.00 56 1017.7
20260902214816 88 283 0.9 2.6 0.00 0.00 0.00 56 1017.8
20260902213916 88 277 1.7 2.6 0.00 0.00 0.00 56 1017.7
20260902213015 88 277 1.7 3.5 0.00 0.00 0.00 56 1017.7
20260902212136 89 275 1.7 3.5 0.00 0.00 0.00 56 1017.6
20260902211215 89 271 1.7 5.2 0.00 0.00 0.00 56 1017.7
20260902210315 89 274 1.7 3.5 0.00 0.00 0.00 56 1017.6
20260902205415 89 284 1.7 5.2 0.00 0.00 0.00 56 1017.5
20260902204515 89 258 2.6 6.1 0.00 0.00 0.00 56 1017.4
20260902203615 89 246 3.5 6.1 0.00 0.00 0.00 55 1017.4
20260902202715 89 243 3.5 7.0 0.00 0.00 0.00 55 1017.4
20260902201815 89 249 4.3 10.4 0.00 0.00 0.00 55 1017.3
20260902200936 89 237 3.5 10.4 0.00 0.00 0.00 55 1017.2
20260902200015 90 220 3.5 7.0 0.00 0.00 0.00 55 1017.1
20260902195115 90 224 2.6 6.1 0.00 0.00 0.00 54 1016.7
20260902194215 91 234 2.6 5.2 0.00 0.00 0.00 53 1016.5
20260902193315 91 229 2.6 6.1 0.00 0.00 0.00 53 1016.4
20260902192415 92 231 3.5 6.1 0.00 0.00 0.00 53 1016.3
20260902191515 92 233 3.5 7.8 0.00 0.00 0.00 52 1016.2
20260902190636 93 231 3.5 7.8 0.00 0.00 0.00 51 1016.2
20260902185715 93 232 3.5 7.0 0.00 0.00 0.00 51 1016.1
20260902184815 94 229 5.2 8.7 0.00 0.00 0.00 50 1016.2
20260902183915 95 238 4.3 10.4 0.00 0.00 0.00 49 1016.0
20260902183015 96 230 4.3 10.4 0.00 0.00 0.00 47 1016.0
20260902182115 97 228 3.5 11.3 0.00 0.00 0.00 43 1016.1
20260902181215 98 222 3.5 7.8 0.00 0.00 0.00 41 1016.0
20260902180315 99 218 3.5 7.8 0.00 0.00 0.00 41 1016.0
20260902175415 99 215 3.5 7.8 0.00 0.00 0.00 41 1016.0
20260902174536 100 220 3.5 7.8 0.00 0.00 0.00 40 1016.0
20260902173615 101 231 3.5 7.8 0.00 0.00 0.00 38 1015.9
20260902172715 101 251 3.5 7.8 0.00 0.00 0.00 37 1015.8
20260902171836 101 252 2.6 7.8 0.00 0.00 0.00 35 1015.9
20260902170915 102 239 3.5 6.1 0.00 0.00 0.00 34 1015.9
20260902170036 102 244 4.3 8.7 0.00 0.00 0.00 34 1016.0
20260902165115 102 241 4.3 8.7 0.00 0.00 0.00 34 1015.9
20260902164215 102 243 4.3 9.6 0.00 0.00 0.00 32 1016.1
20260902163315 102 230 4.3 9.6 0.00 0.00 0.00 31 1016.0
20260902162415 102 257 5.2 9.6 0.00 0.00 0.00 33 1015.9
20260902161514 102 240 4.3 10.4 0.00 0.00 0.00 32 1015.8
20260902160616 103 237 2.6 9.6 0.00 0.00 0.00 32 1015.9
20260902155714 103 252 2.6 6.1 0.00 0.00 0.00 33 1015.9
20260902154815 102 224 2.6 6.1 0.00 0.00 0.00 33 1015.8
20260902153914 102 237 2.6 9.6 0.00 0.00 0.00 34 1015.9
20260902153014 102 225 2.6 6.1 0.00 0.00 0.00 33 1015.9
20260902152114 102 241 2.6 6.1 0.00 0.00 0.00 34 1015.9
20260902151214 101 177 2.6 5.2 0.00 0.00 0.00 35 1016.1
20260902150314 102 253 1.7 4.3 0.00 0.00 0.00 35 1016.1
20260902145414 102 264 1.7 5.2 0.00 0.00 0.00 36 1016.1
20260902144535 101 260 2.6 5.2 0.00 0.00 0.00 37 1016.3